Weather History for McAlester, OK

Change the Weather History Date:

Wednesday, November 28, 2012

  Actual Average Record
Temperature  
Mean Temperature 45 °F -  
Max Temperature 60 °F 52 °F 75 °F (1991)
Min Temperature 30 °F 31 °F 12 °F (1976)
Degree Days  
Heating Degree Days 20    
Moisture  
Dew Point 30 °F    
Average Humidity 58    
Maximum Humidity 85    
Minimum Humidity 35    
Precipitation  
Precipitation 0.00 in - - ()
Sea Level Pressure  
Sea Level Pressure 30.35 in    
Wind  
Wind Speed 4 mph (SSE)    
Max Wind Speed 13 mph    
Max Gust Speed 20 mph    
Visibility 10 miles    
Events      
Averages and records for this station are not official NWS values.
T = Trace of Precipitation, MM = Missing Value Source: NWS Daily Summary

Daily Weather History Graph

Daily Weather History Graph

Search for Another Location

Airport:

Trip Planner

Search our weather history database for the weather conditions in past years. The results will help you decide how hot, cold, wet, or windy it might be!

Date:

Astronomy

Nov. 28, 2012 Rise Set
Actual Time 7:10 AM CST 5:12 PM CST
Civil Twilight 6:42 AM CST 5:39 PM CST
Nautical Twilight 6:11 AM CST 6:10 PM CST
Astronomical Twilight 5:41 AM CST 6:41 PM CST
Moon 5:28 PM CST (11/28) 7:08 AM CST (11/28)
Length of Visible Light 10h 57m
Length of Day
10h 01m
Full, 100% of the Moon is Illuminated
Nov 28
Full
Dec 6
Last Quarter
Dec 13
New
Dec 19
First Quarter
Dec 28
Full

Hourly Weather History & Observations

Time (CST) Temp. Windchill Dew Point Humidity Pressure Visibility Wind Dir Wind Speed Gust Speed Precip Events Conditions
12:53 AM 33.1 °F - 27.0 °F 78% 30.38 in 10.0 mi Calm Calm - N/A   Partly Cloudy
1:53 AM 33.1 °F 30.0 °F 27.0 °F 78% 30.37 in 10.0 mi ESE 3.5 mph - N/A   Partly Cloudy
2:53 AM 30.9 °F - 27.0 °F 85% 30.38 in 10.0 mi Calm Calm - N/A   Clear
3:53 AM 30.0 °F - 26.1 °F 85% 30.37 in 10.0 mi Calm Calm - N/A   Clear
4:53 AM 32.0 °F - 26.1 °F 79% 30.37 in 10.0 mi Calm Calm - N/A   Partly Cloudy
5:53 AM 30.9 °F - 27.0 °F 85% 30.39 in 10.0 mi Calm Calm - N/A   Partly Cloudy
6:53 AM 30.0 °F - 26.1 °F 85% 30.41 in 10.0 mi Calm Calm - N/A   Partly Cloudy
7:53 AM 35.1 °F - 28.0 °F 76% 30.44 in 10.0 mi Calm Calm - N/A   Partly Cloudy
8:53 AM 41.0 °F 39.0 °F 30.0 °F 65% 30.45 in 10.0 mi East 3.5 mph - N/A   Partly Cloudy
9:53 AM 46.9 °F - 32.0 °F 56% 30.45 in 10.0 mi SSE 5.8 mph - N/A   Partly Cloudy
10:53 AM 54.0 °F - 33.1 °F 45% 30.44 in 10.0 mi South 11.5 mph - N/A   Partly Cloudy
11:53 AM 55.9 °F - 32.0 °F 40% 30.40 in 10.0 mi SSE 11.5 mph - N/A   Partly Cloudy
12:53 PM 59.0 °F - 33.1 °F 38% 30.36 in 10.0 mi South 11.5 mph 18.4 mph N/A   Partly Cloudy
1:53 PM 59.0 °F - 32.0 °F 36% 30.33 in 10.0 mi South 12.7 mph 19.6 mph N/A   Scattered Clouds
2:53 PM 60.1 °F - 32.0 °F 35% 30.30 in 10.0 mi South 10.4 mph 16.1 mph N/A   Clear
3:53 PM 59.0 °F - 32.0 °F 36% 30.29 in 10.0 mi South 9.2 mph 16.1 mph N/A   Partly Cloudy
4:53 PM 57.0 °F - 32.0 °F 39% 30.29 in 10.0 mi SSE 4.6 mph - N/A   Clear
5:53 PM 53.1 °F - 32.0 °F 45% 30.29 in 10.0 mi SSE 5.8 mph - N/A   Clear
6:53 PM 52.0 °F - 32.0 °F 47% 30.29 in 10.0 mi SSE 5.8 mph - N/A   Clear
7:53 PM 50.0 °F - 32.0 °F 50% 30.28 in 10.0 mi SSE 4.6 mph - N/A   Clear
8:53 PM 46.9 °F - 30.9 °F 54% 30.27 in 10.0 mi South 3.5 mph - N/A   Partly Cloudy
9:53 PM 50.0 °F - 32.0 °F 50% 30.26 in 10.0 mi SSE 5.8 mph - N/A   Scattered Clouds
10:53 PM 51.1 °F - 32.0 °F 48% 30.25 in 10.0 mi South 10.4 mph 19.6 mph N/A   Clear
11:53 PM 50.0 °F - 30.9 °F 48% 30.24 in 10.0 mi South 9.2 mph - N/A   Clear